Vorticity
22 19 18 19 20 20 21 21 19 18 18 19 23 27 32 38 45 50 50 48 43 39 35 29 21 14 10 7 6 4 2 -0 -2 -2 6 15 15 11 9 11 9 5 8 10 2 -2 3 6 5 7 7 5 8 13 12 11 14 15 13 10 8 10 13 12 11 13 12 11 11 11 11 10 5 4 5 6 7 6 7 7 6 6 6 6 7
23 22 19 19 20 20 20 20 20 20 19 19 20 21 23 24 29 35 40 44 47 47 48 46 42 37 30 25 21 17 14 10 6 -0 -4 3 13 15 12 11 12 10 8 7 5 1 1 1 3 10 10 6 11 14 8 8 13 14 13 10 6 8 13 12 10 13 13 12 14 14 10 8 6 6 7 9 10 9 7 7 6 6 6 6 5
17 17 15 16 16 16 18 17 16 17 18 21 23 23 24 24 24 25 25 27 30 35 40 42 45 46 44 42 37 33 30 25 20 16 6 0 4 10 14 11 10 11 9 8 7 3 3 3 3 7 10 8 13 15 6 3 8 10 11 12 10 12 14 10 6 10 12 12 14 14 11 11 10 8 9 10 10 8 4 4 6 5 6 5 3
12 12 11 12 12 13 15 14 14 13 12 12 12 11 12 12 13 13 14 15 15 17 21 24 28 32 35 38 38 36 34 29 25 24 20 13 6 6 11 12 8 8 9 9 8 3 -0 4 6 7 9 7 9 9 2 2 10 12 13 15 15 15 15 13 11 10 11 11 11 12 12 13 16 17 15 12 7 3 2 4 6 6 6 5 4
9 10 11 10 10 12 12 11 10 9 8 6 3 3 4 4 6 7 8 9 8 7 9 11 15 21 25 29 33 35 34 32 28 24 23 21 14 8 8 11 11 10 7 5 8 6 -2 -2 3 7 10 9 5 3 1 3 13 16 14 13 11 13 17 15 10 7 8 10 11 10 9 9 12 16 20 20 15 10 9 8 7 5 4 4 5
9 9 9 9 10 11 11 11 9 7 6 5 4 4 4 3 4 5 6 6 4 2 2 3 6 10 16 22 28 33 35 35 33 29 25 21 17 11 7 8 12 16 15 12 14 13 4 2 4 3 9 12 6 6 7 6 13 15 10 8 6 11 17 11 5 7 11 14 15 16 16 15 12 12 14 16 15 12 9 6 4 3 4 5 5
9 9 8 8 8 8 9 8 7 6 5 4 4 3 3 4 4 4 5 5 4 3 2 3 4 4 8 14 20 29 35 36 35 32 30 26 21 17 11 7 6 12 20 22 22 18 8 8 8 3 9 13 6 6 6 8 16 13 4 6 6 9 15 9 5 8 8 10 15 18 19 17 16 16 15 16 17 15 12 10 9 9 9 9 8
8 8 6 6 6 7 8 7 6 6 5 4 4 3 2 4 3 3 5 6 6 5 4 4 4 6 8 10 15 27 36 38 35 32 31 30 27 24 19 12 5 5 13 18 19 17 10 11 12 7 13 17 9 3 3 9 17 10 3 5 5 14 21 11 4 8 9 12 13 8 6 4 5 7 8 11 16 17 16 15 15 14 11 10 11
8 7 6 5 5 6 6 7 7 6 6 5 4 4 4 3 2 3 5 6 6 5 5 5 7 9 10 11 19 33 43 43 37 34 32 29 29 28 25 20 12 4 4 12 16 15 14 19 18 12 15 17 11 1 -2 11 19 10 5 3 2 14 14 -1 2 13 13 9 3 -2 -1 -1 2 5 5 6 8 12 16 13 12 16 14 12 13
10 8 7 5 5 7 6 5 7 6 6 7 5 5 5 3 4 5 4 5 6 6 7 9 11 12 13 19 30 41 47 43 35 35 37 34 32 30 28 26 22 11 2 7 14 10 11 19 17 12 13 12 11 2 -6 9 23 12 4 3 2 6 1 -3 10 15 3 -2 -2 -1 -0 2 8 12 12 14 11 11 16 14 12 16 17 15 12
11 9 8 7 7 7 6 5 6 5 5 6 5 5 5 5 6 6 6 8 8 9 13 15 16 18 22 31 37 39 40 35 29 30 39 43 41 36 32 29 28 21 6 3 11 8 9 16 8 5 12 11 9 3 -8 7 27 16 4 6 4 3 5 11 16 6 -5 -2 1 -1 -0 5 9 4 4 16 21 15 15 15 13 13 13 12 10
13 11 10 10 8 7 7 7 7 6 6 7 7 7 8 9 8 9 11 12 10 12 17 19 21 26 31 33 30 27 26 26 24 23 28 38 45 44 39 33 31 31 15 4 8 6 5 14 7 -0 6 6 4 2 -5 7 24 15 6 8 6 6 13 15 10 -0 -4 3 3 -1 1 6 7 -1 -9 1 18 23 18 12 10 10 10 9 7
15 14 12 12 11 9 10 9 8 8 8 8 9 11 13 10 9 12 14 11 12 17 21 23 28 33 31 24 19 22 26 26 26 26 22 26 35 41 45 41 36 37 26 10 11 8 1 7 8 0 1 1 3 5 -3 2 16 12 5 9 8 12 18 12 4 -0 -3 1 4 -0 -1 3 4 4 -2 -3 12 25 20 12 11 10 7 6 5
16 17 15 14 13 12 12 11 11 10 10 11 14 14 12 9 11 14 12 11 17 22 25 29 31 29 21 13 12 17 21 20 23 30 30 26 28 32 40 45 42 40 35 23 18 14 5 4 6 2 -0 -1 2 3 -4 -1 14 14 7 8 7 14 24 13 0 2 2 2 4 -0 -2 0 -2 -1 0 -1 10 23 21 15 12 7 4 3 3
17 19 19 18 16 14 14 13 12 11 13 16 16 12 10 10 11 11 12 18 25 27 29 30 27 22 15 10 11 11 8 9 12 19 26 29 29 28 34 45 45 41 38 31 24 20 14 13 13 7 4 2 -0 0 -3 0 15 17 10 7 4 11 24 14 -2 4 8 1 3 4 1 -0 -2 -2 -0 2 13 24 21 13 7 4 4 2 3
17 19 21 21 19 16 14 13 12 15 17 17 14 10 9 9 10 14 21 28 29 26 27 21 17 20 16 9 11 10 5 9 11 9 16 27 29 30 41 48 44 40 38 29 25 28 25 21 19 12 8 4 -3 -3 -1 4 16 17 6 6 10 14 19 8 -3 4 6 -2 -1 3 0 1 3 3 4 10 19 22 15 9 6 3 3 3 8
18 20 20 20 18 15 14 14 16 17 16 13 9 7 8 11 18 25 29 30 25 20 19 15 13 21 21 12 14 13 5 10 14 6 11 26 31 35 43 36 23 30 36 20 13 25 27 23 23 19 14 10 2 0 3 7 16 15 5 10 21 19 11 4 1 3 4 1 1 -2 -2 2 5 7 14 20 20 14 9 6 3 1 5 11 14
18 19 19 18 15 14 16 17 18 15 11 8 7 9 17 24 30 33 28 22 18 13 12 13 12 19 22 15 16 17 8 8 14 9 7 22 33 31 26 14 8 24 36 21 13 25 25 15 15 20 21 19 11 7 9 12 15 15 13 17 19 12 3 3 4 3 4 8 7 2 3 5 5 10 18 20 14 8 6 3 1 6 13 14 10
17 19 18 16 15 17 18 16 13 9 6 8 14 22 30 33 31 27 20 14 15 14 16 20 19 23 27 17 14 24 18 3 4 7 6 17 34 31 16 8 13 23 26 17 13 26 33 20 10 15 21 18 13 13 16 18 15 13 16 14 7 1 1 4 3 -0 3 11 12 10 12 12 12 16 18 16 11 7 7 6 8 14 14 9 5
19 19 18 18 18 17 15 11 7 7 11 20 28 30 31 28 23 20 17 17 20 17 15 18 20 28 35 21 8 19 26 13 6 8 9 20 36 32 16 13 20 22 19 13 6 14 32 30 14 12 16 14 14 16 14 13 10 7 8 6 -1 -2 3 7 7 3 4 10 13 14 14 13 16 20 18 14 12 9 11 13 13 12 8 5 7
20 21 19 18 15 12 10 7 7 14 22 28 28 23 21 21 20 19 18 16 12 8 10 23 35 46 46 24 2 7 21 25 18 7 10 31 41 25 11 16 22 17 16 17 9 9 25 29 15 10 13 11 10 8 3 3 5 4 4 4 4 5 3 5 9 7 6 9 11 13 13 9 12 17 14 12 13 13 14 13 9 7 5 5 7
21 22 18 13 10 9 8 7 13 23 27 23 20 20 23 25 21 16 13 10 11 18 30 42 49 48 35 13 5 12 19 22 19 7 13 37 40 19 13 22 21 14 14 15 12 12 20 23 15 10 11 8 5 3 2 3 5 7 9 10 12 10 2 1 7 8 8 12 12 12 12 9 12 16 13 13 15 14 11 8 6 7 8 7 6
21 21 14 9 9 8 7 13 23 25 20 20 25 28 26 20 14 14 17 20 24 27 25 17 10 12 14 9 11 18 15 13 18 15 20 37 34 14 10 12 8 12 20 19 17 21 24 23 18 16 16 14 12 12 11 10 10 13 14 14 13 8 2 3 9 9 10 13 11 9 10 12 15 15 13 14 14 9 6 6 8 9 8 6 4
20 17 11 9 8 7 13 24 24 18 21 31 33 22 10 6 13 23 24 21 18 12 4 -4 -6 7 21 20 16 17 17 17 20 17 20 35 33 13 4 2 1 10 19 16 13 17 22 24 21 16 16 16 15 16 17 15 15 14 11 9 7 6 5 8 12 12 10 9 9 11 15 18 17 14 13 12 8 6 7 9 9 8 4 3 5
18 14 10 8 6 12 23 24 15 18 32 33 17 2 -1 8 23 26 15 9 9 7 5 10 16 22 26 21 16 20 26 25 22 20 25 35 31 16 7 6 5 10 15 15 9 1 1 9 13 12 13 15 14 15 14 11 10 7 6 7 7 8 12 13 12 10 8 9 14 18 19 17 14 11 10 8 7 8 11 10 7 4 3 6 9
17 13 8 5 10 21 24 17 16 26 27 11 -1 -0 9 20 25 18 7 9 15 12 11 19 25 24 23 22 19 19 19 17 15 18 24 25 20 13 9 9 10 11 15 21 22 14 5 6 11 14 16 13 10 9 6 4 5 6 8 12 13 13 13 11 9 9 11 16 20 20 16 13 11 10 8 8 10 12 10 6 4 4 6 9 10
16 12 6 6 19 26 19 16 23 23 8 -2 3 12 18 23 20 11 7 10 10 7 8 15 21 20 16 16 15 10 8 10 11 14 18 18 16 16 15 15 17 17 15 19 25 27 22 15 11 10 9 8 7 6 6 8 11 12 12 11 10 10 9 10 14 17 19 21 18 14 12 11 10 10 10 11 12 9 5 4 5 7 10 10 10
15 10 5 11 26 25 14 17 22 9 -3 3 13 16 18 21 16 9 5 2 1 6 9 11 18 21 16 14 14 10 7 10 12 12 15 17 21 24 23 22 23 22 22 24 23 21 19 15 10 8 8 8 9 9 11 13 12 9 9 7 8 12 16 20 23 21 18 15 12 11 12 11 10 11 12 11 9 5 3 6 8 10 10 10 13
12 6 6 19 30 21 12 17 14 0 -1 11 17 15 14 13 11 10 6 2 3 8 10 12 18 19 13 12 12 8 7 11 15 18 21 22 24 27 26 26 27 24 21 19 14 11 11 11 11 11 10 9 10 10 11 11 10 10 14 16 19 22 21 20 17 13 11 11 11 11 11 10 11 12 10 8 5 3 6 9 9 9 10 12 16
9 4 9 25 29 16 10 12 9 3 5 9 14 18 15 11 12 10 6 6 8 7 8 15 22 23 19 18 16 12 9 9 13 23 30 28 24 22 19 16 14 11 7 6 5 7 10 10 9 9 8 8 8 9 9 12 15 20 22 22 21 18 15 13 12 11 12 13 12 12 11 11 12 11 6 5 5 7 10 10 8 9 12 14 16
6 4 15 30 26 12 8 10 11 12 8 2 8 18 19 16 16 10 5 7 8 5 6 10 15 22 27 26 23 23 20 14 11 18 24 20 11 6 3 1 1 4 5 5 6 8 10 9 7 8 9 8 7 8 10 13 16 19 19 18 17 15 14 14 13 13 14 13 12 12 12 11 9 6 4 5 8 9 9 8 9 12 13 13 14
4 6 22 33 22 10 10 11 12 17 15 10 15 23 23 20 17 12 10 12 9 7 8 6 5 12 20 20 17 17 17 14 12 12 12 10 6 3 4 4 5 6 5 3 3 6 6 7 10 10 8 6 5 7 8 10 13 16 17 17 16 15 14 13 12 13 12 12 12 11 10 7 5 4 6 9 9 9 9 9 11 13 11 12 13
2 8 28 33 18 9 11 10 12 19 20 17 18 18 18 16 10 7 12 18 19 15 10 6 3 4 8 12 12 11 13 15 15 12 10 8 6 4 5 5 3 2 3 3 6 9 9 10 12 10 6 3 3 3 4 7 11 14 15 14 12 12 12 12 12 12 12 11 11 8 5 4 5 7 9 10 8 8 10 10 11 11 10 11 12
-0 12 33 32 14 7 9 8 10 14 11 8 9 10 11 9 4 1 6 13 20 21 15 12 8 0 -2 5 8 6 9 13 14 15 16 15 9 3 4 6 5 6 9 11 12 13 14 13 11 7 3 2 2 2 4 8 11 11 12 12 12 11 12 13 12 11 10 9 7 5 4 6 8 9 9 8 8 10 10 10 10 10 10 11 11
-0 15 37 31 11 7 9 5 5 7 4 5 11 12 9 5 2 2 3 6 15 23 26 28 23 8 -3 -1 2 1 4 8 11 12 14 16 15 12 10 12 14 14 15 15 14 13 13 13 12 9 7 5 5 6 8 10 11 12 13 13 13 13 14 13 11 10 8 5 4 5 7 8 9 8 8 8 10 10 10 10 10 10 10 10 10
2 17 39 32 10 8 11 3 -1 3 3 5 10 8 4 4 4 4 6 8 14 22 28 34 36 27 13 8 5 0 -2 0 5 9 10 11 14 17 16 15 15 14 13 11 10 11 10 10 11 12 11 11 12 12 12 11 11 13 14 14 15 15 13 11 9 6 5 4 5 7 9 8 8 9 9 10 10 9 9 10 10 10 10 10 10
4 16 40 35 11 7 13 5 -2 3 5 4 5 5 6 9 7 5 9 13 15 20 25 26 25 23 20 19 17 12 5 -1 -2 2 6 7 8 10 13 13 9 7 7 5 5 6 6 5 6 7 9 13 14 12 12 12 12 14 16 16 16 14 10 7 6 4 4 7 8 8 9 8 9 9 9 9 9 8 9 10 9 9 11 10 10
5 12 36 37 14 7 14 7 -1 4 8 6 5 7 9 10 6 5 9 10 8 15 24 25 21 19 19 21 23 24 20 12 3 -2 -1 3 5 6 7 6 4 3 3 3 3 3 3 3 4 4 7 12 13 12 13 14 15 17 18 16 14 10 6 4 4 5 7 9 8 9 9 9 9 10 9 8 9 8 8 9 9 8 10 9 9
6 12 32 36 20 12 15 8 1 4 7 6 8 11 10 6 2 4 9 8 3 5 12 17 21 23 24 27 29 30 30 28 23 12 1 -2 1 6 7 6 5 3 1 0 1 3 4 4 4 6 10 14 14 13 14 16 17 18 16 11 8 5 4 5 6 7 9 9 9 9 10 8 8 9 8 7 8 7 7 8 8 8 9 9 9
6 15 30 34 25 17 14 6 2 5 7 7 9 10 7 2 1 4 7 5 3 3 4 6 9 9 11 18 25 29 31 34 37 36 27 15 8 6 5 6 6 4 3 4 4 4 6 7 8 12 16 16 15 14 15 16 16 14 9 6 5 4 5 7 8 9 10 10 10 9 9 8 7 7 7 6 7 7 7 7 7 7 8 9 8
5 14 29 34 27 18 11 5 4 6 7 6 7 6 3 0 0 2 2 2 3 4 4 7 9 7 6 9 13 17 22 24 26 32 38 37 29 17 8 7 9 8 8 8 6 7 11 13 14 17 17 15 15 16 15 14 12 8 5 4 4 6 8 9 10 11 11 10 9 8 7 6 6 5 6 6 6 6 6 6 7 7 7 8 9
5 10 24 32 28 18 9 6 7 7 4 3 3 4 2 -0 -2 -0 1 1 3 5 5 8 10 9 8 10 13 13 14 16 16 17 22 29 35 31 24 19 16 13 11 12 13 15 17 17 16 17 17 16 16 14 12 10 7 4 4 6 7 9 11 11 11 11 9 7 7 6 5 5 5 5 6 6 5 6 7 6 7 8 7 8 9
6 7 15 26 30 21 10 6 9 9 5 2 2 3 1 -3 -3 1 1 -0 2 5 6 10 12 7 4 13 23 22 15 13 16 16 13 14 20 24 25 24 21 17 18 19 18 17 16 15 16 17 16 14 12 9 7 6 4 4 7 9 10 11 12 11 9 8 6 5 5 5 4 5 5 4 5 6 5 6 7 7 8 9 9 8 10
8 7 8 18 27 25 15 8 8 9 7 4 3 3 0 -3 -1 2 0 0 5 6 4 8 13 7 3 14 28 29 21 15 15 16 14 11 12 14 18 21 22 21 19 17 14 13 14 15 15 15 12 9 8 6 4 4 6 8 11 12 12 11 11 8 6 5 4 4 4 4 4 5 5 4 6 6 6 7 9 8 9 9 8 8 9
9 9 7 10 19 25 22 13 7 7 8 7 4 2 -2 -2 2 3 0 2 8 7 4 9 12 5 5 18 28 26 23 22 20 18 18 15 13 13 14 15 17 17 14 11 11 13 15 14 12 10 8 6 5 5 7 9 12 13 13 12 11 9 7 5 4 4 4 4 4 4 4 5 5 5 6 8 8 9 9 9 9 10 12 13 15
9 10 8 7 11 19 23 20 11 5 5 8 8 4 0 0 3 3 2 6 8 4 4 10 8 1 8 25 27 20 20 24 22 21 21 18 13 12 10 10 13 16 15 14 15 14 12 10 8 6 6 6 7 9 12 13 13 13 11 9 7 5 4 4 4 4 5 4 4 5 5 6 7 8 9 9 10 9 10 13 15 18 21 23 22
10 10 9 7 8 12 18 22 19 11 5 5 5 3 4 5 4 1 4 8 8 3 5 9 6 5 16 27 23 16 20 24 22 21 22 19 16 16 15 14 17 18 15 12 11 8 6 7 6 6 9 11 12 13 13 11 10 9 7 5 4 4 4 5 4 4 6 6 6 6 7 7 9 10 9 10 12 15 17 22 24 22 22 23 20
15 13 10 8 8 9 12 18 21 19 15 12 7 3 2 3 2 4 10 11 7 5 8 9 7 10 20 23 17 15 21 24 21 20 19 16 15 16 15 13 13 11 8 7 7 7 7 9 10 11 13 13 12 11 10 8 7 6 5 4 5 5 4 5 6 6 6 7 7 8 10 9 9 11 13 16 21 23 23 22 21 18 16 17 16
20 20 15 11 9 10 11 13 16 20 21 22 22 19 16 15 15 17 19 14 7 7 9 9 10 16 21 19 15 14 16 15 13 12 11 10 9 9 8 7 7 8 8 10 11 11 12 12 12 11 11 10 8 8 7 6 5 6 5 5 6 5 5 6 7 7 7 9 9 10 11 11 12 17 21 23 23 22 18 15 15 14 13 13 14
20 19 16 12 10 12 13 14 18 22 22 21 22 24 25 24 23 21 18 13 10 10 10 9 11 16 17 15 14 13 11 10 10 9 8 8 8 8 8 10 12 13 13 13 12 11 11 10 10 8 8 7 6 6 6 6 6 6 6 5 6 6 6 7 8 8 9 10 10 10 13 17 20 23 24 20 16 15 13 12 11 11 11 10 11
19 15 13 12 11 12 14 17 22 25 22 18 20 25 27 23 19 16 14 12 11 9 8 8 11 13 11 9 10 11 11 12 12 11 11 13 15 15 15 15 13 13 12 10 9 9 7 7 7 7 6 6 6 6 7 7 7 6 6 6 6 7 8 8 9 10 10 11 13 16 19 23 23 20 17 14 12 11 11 10 10 10 10 9 10
Height
5323 5322 5321 5321 5320 5319 5319 5318 5318 5317 5317 5317 5318 5318 5318 5318 5319 5319 5320 5321 5322 5323 5326 5327 5329 5331 5333 5336 5339 5342 5345 5347 5349 5350 5352 5354 5357 5360 5364 5368 5373 5377 5382 5387 5390 5392 5395 5397 5399 5402 5405 5407 5408 5409 5411 5412 5413 5415 5416 5417 5418 5419 5419 5419 5420 5421 5423 5423 5423 5421 5421 5422 5424 5425 5425 5426 5426 5427 5428 5430 5431 5431 5431 5432 5432
5319 5318 5317 5317 5316 5316 5315 5314 5314 5313 5313 5313 5312 5312 5312 5312 5312 5312 5312 5312 5312 5313 5315 5316 5318 5319 5321 5324 5326 5329 5332 5334 5336 5337 5340 5343 5346 5348 5351 5355 5361 5365 5370 5376 5380 5382 5384 5387 5390 5393 5396 5398 5399 5400 5402 5404 5405 5407 5409 5410 5410 5411 5411 5411 5412 5413 5414 5416 5416 5414 5414 5415 5416 5416 5416 5417 5418 5418 5420 5421 5422 5423 5423 5424 5424
5315 5314 5313 5312 5312 5311 5310 5310 5309 5308 5308 5308 5307 5307 5306 5306 5306 5305 5305 5305 5305 5305 5306 5306 5307 5308 5309 5311 5313 5315 5318 5320 5321 5323 5326 5330 5333 5336 5339 5343 5347 5352 5358 5365 5369 5371 5373 5376 5380 5383 5386 5388 5390 5392 5394 5396 5398 5399 5401 5402 5402 5403 5403 5403 5404 5406 5407 5408 5408 5408 5408 5408 5409 5409 5408 5409 5410 5410 5412 5413 5413 5414 5415 5415 5415
5310 5309 5308 5307 5306 5306 5305 5304 5304 5303 5303 5302 5302 5302 5301 5301 5301 5300 5300 5299 5299 5299 5299 5299 5298 5298 5298 5299 5299 5301 5302 5304 5306 5308 5311 5316 5319 5322 5326 5329 5333 5339 5346 5352 5357 5359 5362 5367 5371 5374 5376 5379 5381 5384 5386 5388 5390 5391 5392 5393 5394 5395 5396 5396 5397 5398 5399 5400 5401 5402 5402 5402 5402 5402 5401 5401 5401 5402 5404 5405 5405 5406 5406 5406 5406
5305 5303 5302 5302 5301 5300 5300 5299 5298 5298 5297 5297 5296 5296 5295 5295 5294 5294 5294 5293 5293 5292 5292 5291 5291 5290 5289 5289 5288 5287 5288 5289 5290 5292 5296 5300 5304 5308 5313 5317 5321 5326 5332 5339 5343 5347 5351 5357 5361 5364 5367 5369 5373 5376 5379 5380 5382 5382 5384 5385 5386 5387 5388 5389 5390 5391 5392 5394 5394 5395 5396 5396 5395 5395 5394 5394 5395 5396 5397 5398 5398 5399 5399 5398 5398
5300 5299 5298 5296 5296 5295 5294 5294 5293 5292 5292 5291 5290 5289 5289 5288 5287 5287 5286 5285 5285 5284 5284 5283 5282 5281 5281 5279 5278 5276 5275 5275 5276 5278 5281 5285 5289 5294 5299 5304 5308 5313 5319 5326 5331 5335 5341 5347 5351 5354 5358 5361 5365 5368 5371 5372 5373 5374 5376 5377 5378 5379 5380 5381 5382 5384 5385 5387 5388 5389 5390 5389 5388 5388 5388 5387 5389 5391 5390 5390 5391 5392 5391 5390 5389
5295 5294 5293 5292 5291 5290 5289 5288 5287 5287 5286 5284 5284 5283 5282 5281 5280 5279 5278 5276 5275 5275 5274 5273 5272 5271 5270 5269 5267 5265 5263 5262 5263 5265 5267 5271 5275 5280 5286 5291 5296 5301 5307 5314 5319 5324 5330 5336 5340 5344 5349 5353 5356 5360 5362 5363 5364 5366 5368 5370 5371 5372 5373 5375 5376 5377 5379 5380 5381 5382 5383 5382 5382 5382 5381 5381 5383 5384 5383 5384 5384 5384 5382 5382 5381
5289 5288 5287 5286 5285 5284 5283 5282 5282 5281 5279 5278 5277 5276 5275 5274 5272 5271 5270 5268 5267 5265 5264 5263 5261 5260 5258 5256 5254 5252 5251 5250 5250 5252 5254 5257 5261 5266 5271 5278 5284 5290 5297 5302 5307 5313 5319 5325 5330 5335 5340 5343 5347 5351 5353 5354 5355 5357 5360 5362 5364 5365 5366 5368 5370 5371 5372 5374 5375 5376 5376 5376 5376 5375 5375 5375 5376 5376 5376 5376 5377 5375 5374 5373 5374
5283 5281 5280 5279 5278 5277 5276 5276 5275 5274 5273 5272 5271 5269 5268 5267 5265 5264 5262 5261 5259 5257 5255 5253 5250 5248 5245 5242 5240 5239 5238 5237 5238 5239 5240 5243 5247 5252 5258 5264 5272 5279 5285 5291 5297 5302 5309 5315 5320 5326 5330 5334 5338 5342 5344 5346 5347 5350 5353 5355 5356 5358 5359 5361 5363 5364 5366 5368 5369 5369 5370 5370 5370 5368 5368 5368 5368 5368 5368 5368 5368 5367 5366 5366 5366
5276 5275 5273 5272 5271 5270 5269 5269 5268 5267 5266 5265 5264 5263 5261 5259 5258 5257 5255 5253 5250 5248 5246 5243 5240 5237 5234 5231 5229 5227 5226 5226 5227 5227 5228 5231 5235 5240 5246 5253 5260 5267 5274 5281 5286 5293 5299 5305 5311 5316 5321 5324 5329 5333 5336 5338 5340 5343 5345 5347 5349 5352 5353 5354 5356 5358 5360 5361 5362 5363 5363 5364 5363 5361 5361 5361 5361 5361 5360 5360 5359 5359 5358 5358 5358
5270 5269 5267 5266 5264 5263 5262 5261 5261 5260 5259 5258 5256 5255 5253 5251 5250 5249 5247 5244 5241 5239 5237 5234 5231 5228 5224 5221 5219 5218 5218 5218 5218 5217 5218 5220 5223 5228 5234 5241 5248 5256 5263 5270 5277 5284 5290 5296 5302 5307 5312 5316 5321 5325 5328 5331 5333 5335 5338 5340 5342 5345 5347 5349 5351 5352 5353 5355 5356 5357 5357 5357 5356 5355 5354 5354 5353 5353 5352 5351 5351 5350 5350 5350 5350
5265 5263 5261 5259 5258 5256 5256 5255 5254 5253 5252 5250 5248 5247 5245 5243 5241 5240 5238 5234 5231 5229 5227 5225 5222 5218 5216 5214 5213 5211 5211 5211 5210 5210 5210 5212 5214 5218 5224 5230 5238 5245 5253 5260 5268 5275 5281 5287 5293 5298 5303 5308 5313 5317 5321 5324 5326 5328 5331 5333 5335 5338 5340 5343 5344 5346 5347 5348 5349 5350 5350 5350 5349 5348 5347 5346 5346 5345 5344 5343 5342 5342 5342 5342 5342
5259 5257 5254 5252 5251 5250 5248 5248 5247 5246 5244 5242 5241 5239 5237 5234 5232 5231 5228 5225 5222 5220 5218 5216 5213 5211 5209 5208 5207 5206 5206 5205 5204 5204 5205 5206 5208 5210 5215 5220 5228 5236 5244 5251 5258 5265 5272 5278 5284 5290 5295 5300 5305 5309 5314 5317 5319 5322 5324 5326 5329 5331 5334 5336 5338 5339 5340 5341 5343 5344 5344 5344 5343 5342 5340 5339 5339 5338 5337 5336 5334 5333 5334 5334 5334
5252 5250 5248 5246 5244 5243 5242 5241 5240 5239 5237 5235 5233 5231 5229 5226 5224 5222 5219 5216 5214 5213 5211 5208 5206 5205 5204 5203 5203 5202 5202 5201 5200 5200 5200 5201 5202 5204 5207 5212 5219 5227 5236 5242 5248 5255 5263 5270 5276 5282 5287 5293 5298 5302 5306 5310 5312 5315 5318 5320 5323 5325 5327 5329 5331 5332 5333 5335 5336 5337 5337 5337 5337 5335 5334 5332 5332 5330 5329 5328 5326 5325 5326 5327 5326
5246 5244 5241 5239 5238 5236 5235 5235 5234 5232 5230 5229 5226 5224 5222 5219 5217 5214 5211 5209 5207 5205 5204 5202 5201 5200 5199 5199 5198 5198 5198 5197 5197 5196 5196 5197 5197 5198 5201 5206 5212 5219 5228 5235 5241 5248 5255 5262 5268 5274 5280 5285 5291 5295 5299 5302 5306 5308 5312 5314 5317 5319 5321 5322 5324 5325 5327 5328 5330 5330 5331 5331 5330 5329 5327 5325 5324 5323 5322 5321 5319 5318 5319 5319 5317
5240 5238 5235 5233 5232 5230 5229 5229 5227 5225 5224 5222 5220 5217 5215 5213 5210 5207 5205 5203 5201 5199 5198 5197 5196 5195 5195 5194 5194 5194 5195 5194 5194 5193 5193 5193 5193 5193 5197 5202 5207 5214 5221 5229 5236 5242 5248 5255 5261 5267 5273 5279 5284 5288 5292 5296 5299 5302 5306 5308 5310 5312 5314 5316 5317 5318 5320 5322 5323 5324 5324 5324 5323 5321 5320 5318 5317 5316 5315 5314 5311 5310 5312 5311 5309
5234 5232 5230 5227 5226 5225 5223 5223 5221 5220 5218 5216 5214 5212 5209 5207 5204 5201 5199 5197 5196 5194 5193 5192 5191 5190 5190 5190 5190 5190 5191 5191 5191 5191 5190 5190 5190 5191 5195 5200 5206 5211 5218 5225 5231 5236 5243 5250 5255 5261 5267 5273 5278 5282 5285 5290 5294 5297 5300 5302 5304 5306 5307 5309 5310 5312 5314 5316 5316 5317 5317 5317 5316 5314 5312 5311 5310 5309 5308 5307 5304 5303 5304 5303 5301
5229 5226 5224 5222 5221 5219 5218 5217 5216 5214 5212 5210 5208 5206 5203 5200 5198 5196 5194 5193 5192 5190 5188 5187 5187 5186 5185 5186 5185 5186 5187 5187 5188 5188 5188 5188 5188 5190 5194 5199 5204 5209 5214 5221 5226 5231 5238 5244 5249 5255 5261 5267 5272 5276 5280 5285 5289 5292 5294 5296 5298 5300 5300 5301 5303 5306 5308 5309 5310 5310 5311 5310 5309 5306 5305 5304 5304 5303 5302 5300 5298 5297 5296 5295 5293
5224 5221 5219 5217 5216 5214 5214 5213 5211 5209 5208 5205 5203 5200 5197 5195 5193 5191 5190 5189 5188 5186 5184 5183 5182 5181 5181 5182 5182 5182 5183 5184 5185 5185 5186 5187 5187 5189 5193 5198 5203 5207 5212 5218 5223 5228 5233 5239 5245 5251 5257 5262 5267 5271 5275 5280 5284 5286 5288 5290 5292 5293 5293 5295 5298 5300 5301 5302 5303 5304 5304 5303 5301 5299 5298 5297 5297 5296 5295 5293 5292 5290 5289 5287 5285
5219 5217 5214 5213 5212 5211 5210 5208 5207 5205 5203 5200 5197 5195 5192 5190 5189 5188 5187 5186 5184 5183 5181 5179 5178 5177 5177 5178 5179 5180 5181 5181 5182 5183 5184 5185 5186 5188 5192 5197 5201 5205 5210 5215 5220 5224 5229 5235 5241 5247 5252 5257 5262 5267 5271 5275 5278 5280 5282 5284 5285 5286 5288 5291 5293 5294 5295 5296 5296 5296 5295 5295 5294 5292 5291 5291 5290 5289 5288 5286 5285 5283 5282 5280 5277
5215 5212 5211 5209 5208 5207 5206 5204 5203 5201 5198 5195 5193 5191 5189 5188 5187 5186 5184 5183 5181 5180 5178 5176 5174 5173 5174 5175 5177 5178 5179 5180 5180 5181 5182 5183 5185 5187 5191 5195 5199 5204 5208 5212 5216 5221 5227 5232 5238 5243 5248 5252 5257 5262 5266 5269 5272 5275 5277 5278 5279 5281 5284 5286 5287 5288 5289 5289 5289 5288 5288 5288 5287 5286 5285 5284 5283 5282 5281 5280 5278 5276 5274 5272 5269
5211 5209 5208 5206 5205 5204 5202 5201 5199 5196 5194 5192 5190 5188 5187 5186 5185 5184 5182 5181 5179 5178 5176 5174 5173 5172 5173 5174 5176 5177 5177 5178 5178 5179 5180 5182 5184 5186 5189 5194 5198 5202 5206 5209 5214 5219 5224 5229 5234 5239 5243 5248 5253 5257 5261 5264 5266 5269 5270 5272 5275 5277 5279 5281 5281 5282 5282 5282 5282 5282 5281 5280 5280 5279 5278 5277 5276 5276 5274 5273 5271 5269 5267 5264 5261
5207 5206 5205 5204 5202 5201 5199 5197 5195 5193 5191 5189 5188 5187 5186 5185 5184 5182 5181 5180 5178 5177 5176 5175 5174 5173 5173 5174 5175 5176 5176 5177 5177 5178 5179 5181 5183 5186 5189 5193 5197 5200 5204 5208 5212 5217 5222 5227 5231 5235 5240 5245 5249 5253 5256 5259 5261 5263 5265 5268 5271 5273 5274 5275 5275 5275 5275 5275 5275 5275 5274 5274 5273 5272 5272 5271 5270 5269 5267 5266 5264 5261 5259 5256 5252
5204 5204 5203 5201 5200 5199 5196 5194 5192 5191 5189 5188 5187 5186 5186 5184 5183 5182 5180 5179 5179 5178 5177 5176 5175 5174 5174 5174 5174 5175 5175 5176 5177 5178 5179 5181 5183 5186 5189 5193 5196 5199 5203 5207 5211 5215 5220 5225 5229 5233 5238 5242 5245 5249 5252 5254 5256 5258 5261 5264 5266 5267 5268 5268 5269 5269 5269 5268 5268 5268 5268 5268 5267 5266 5265 5264 5263 5262 5260 5259 5257 5254 5251 5248 5244
5202 5201 5200 5199 5198 5196 5193 5192 5190 5189 5188 5187 5187 5186 5185 5184 5183 5181 5181 5180 5179 5179 5178 5177 5176 5175 5175 5174 5174 5175 5175 5176 5177 5178 5179 5181 5183 5186 5189 5193 5196 5199 5202 5206 5210 5214 5219 5223 5227 5231 5235 5239 5242 5245 5248 5249 5251 5254 5257 5259 5261 5262 5262 5262 5262 5262 5262 5262 5263 5263 5262 5262 5261 5260 5259 5258 5257 5256 5254 5252 5250 5247 5244 5240 5236
5199 5198 5197 5196 5195 5193 5191 5190 5189 5188 5188 5187 5187 5186 5185 5184 5182 5182 5181 5181 5180 5179 5178 5177 5176 5176 5175 5175 5176 5176 5177 5177 5178 5179 5181 5182 5184 5187 5189 5192 5195 5198 5201 5204 5208 5213 5217 5222 5226 5229 5232 5235 5238 5241 5244 5246 5248 5251 5253 5254 5255 5255 5256 5256 5256 5256 5257 5257 5257 5257 5256 5256 5255 5254 5253 5252 5251 5249 5248 5246 5243 5240 5237 5234 5229
5197 5196 5195 5194 5192 5190 5189 5189 5188 5188 5188 5188 5187 5186 5185 5184 5183 5182 5182 5181 5180 5179 5179 5178 5177 5177 5176 5176 5177 5177 5178 5179 5179 5180 5182 5183 5185 5187 5189 5192 5194 5196 5199 5203 5207 5211 5216 5220 5224 5227 5230 5233 5235 5238 5240 5242 5244 5246 5247 5248 5249 5249 5250 5251 5251 5251 5252 5252 5252 5252 5251 5251 5250 5249 5248 5246 5245 5244 5242 5239 5237 5234 5231 5228 5223
5194 5194 5193 5192 5190 5189 5188 5188 5188 5188 5188 5188 5187 5186 5185 5184 5183 5183 5182 5182 5181 5180 5179 5178 5178 5178 5177 5178 5178 5179 5179 5179 5180 5181 5182 5184 5186 5187 5189 5191 5193 5196 5200 5203 5207 5211 5215 5218 5222 5224 5227 5230 5233 5235 5237 5238 5239 5240 5241 5242 5244 5244 5245 5246 5246 5247 5247 5247 5247 5247 5246 5245 5244 5243 5242 5241 5240 5238 5236 5233 5231 5228 5225 5221 5217
5193 5192 5191 5190 5189 5188 5188 5188 5188 5188 5188 5188 5187 5186 5185 5185 5184 5183 5183 5182 5182 5181 5180 5180 5179 5178 5178 5179 5179 5180 5180 5180 5181 5182 5183 5184 5186 5188 5190 5192 5195 5198 5201 5205 5208 5211 5215 5217 5220 5223 5225 5227 5230 5231 5233 5234 5235 5237 5238 5239 5240 5241 5241 5242 5242 5242 5242 5242 5242 5241 5241 5240 5239 5238 5237 5236 5234 5232 5230 5228 5225 5222 5219 5215 5212
5191 5191 5190 5189 5188 5187 5187 5188 5188 5188 5188 5188 5187 5187 5186 5185 5185 5184 5184 5183 5183 5182 5181 5181 5180 5179 5179 5179 5180 5181 5181 5182 5182 5183 5184 5186 5188 5190 5192 5195 5197 5200 5203 5206 5209 5212 5214 5217 5219 5221 5222 5224 5226 5229 5230 5232 5233 5234 5235 5236 5236 5237 5237 5238 5238 5238 5238 5238 5237 5236 5236 5235 5234 5234 5233 5231 5229 5227 5224 5222 5219 5216 5213 5209 5206
5191 5190 5188 5187 5187 5187 5187 5188 5189 5189 5188 5188 5187 5187 5187 5186 5186 5185 5185 5184 5184 5183 5182 5181 5181 5181 5180 5180 5181 5182 5182 5183 5184 5185 5186 5188 5190 5192 5194 5196 5199 5201 5204 5206 5209 5211 5213 5215 5217 5218 5220 5223 5225 5228 5229 5230 5231 5231 5231 5232 5233 5233 5233 5234 5234 5234 5233 5233 5232 5232 5231 5231 5230 5229 5228 5226 5224 5221 5218 5215 5213 5209 5207 5204 5201
5190 5189 5187 5187 5187 5187 5188 5188 5189 5189 5189 5188 5188 5187 5187 5187 5187 5187 5186 5185 5185 5183 5183 5182 5182 5182 5182 5182 5182 5183 5184 5185 5186 5187 5188 5190 5192 5194 5196 5197 5199 5201 5203 5206 5208 5210 5212 5213 5215 5218 5220 5222 5224 5226 5227 5227 5228 5228 5228 5229 5229 5229 5230 5230 5229 5229 5228 5228 5228 5227 5227 5227 5226 5224 5222 5220 5218 5215 5212 5209 5207 5204 5201 5198 5195
5189 5188 5187 5186 5187 5188 5188 5189 5189 5189 5189 5189 5188 5188 5188 5188 5188 5188 5187 5186 5186 5185 5184 5183 5183 5184 5184 5184 5184 5185 5185 5186 5187 5188 5190 5191 5193 5194 5196 5197 5199 5201 5202 5205 5207 5209 5211 5213 5215 5217 5219 5221 5222 5223 5224 5224 5225 5225 5226 5226 5226 5226 5226 5225 5225 5225 5224 5224 5224 5224 5223 5222 5221 5219 5217 5214 5212 5209 5206 5204 5201 5198 5195 5192 5189
5189 5188 5187 5187 5187 5188 5189 5189 5190 5190 5190 5190 5190 5190 5190 5190 5189 5189 5188 5187 5187 5186 5185 5184 5184 5185 5185 5185 5186 5186 5187 5188 5189 5189 5191 5192 5194 5195 5196 5198 5199 5201 5203 5204 5207 5208 5210 5212 5214 5216 5217 5219 5220 5221 5221 5222 5222 5222 5222 5222 5222 5222 5222 5221 5221 5221 5221 5221 5221 5220 5219 5218 5216 5214 5211 5209 5207 5204 5201 5199 5196 5193 5190 5187 5184
5189 5188 5187 5187 5188 5189 5189 5190 5191 5191 5191 5191 5191 5191 5191 5191 5190 5190 5189 5189 5188 5187 5186 5185 5185 5186 5186 5186 5187 5187 5188 5189 5190 5191 5192 5193 5194 5195 5197 5199 5200 5202 5203 5205 5207 5208 5210 5212 5213 5215 5216 5217 5218 5218 5219 5219 5219 5219 5219 5219 5219 5219 5218 5218 5218 5218 5218 5218 5217 5216 5215 5213 5211 5209 5207 5204 5202 5200 5197 5194 5191 5188 5185 5182 5179
5190 5188 5187 5188 5189 5190 5191 5191 5192 5192 5192 5193 5193 5193 5193 5192 5191 5190 5190 5190 5189 5188 5187 5186 5185 5186 5187 5187 5188 5188 5189 5190 5191 5192 5193 5194 5195 5196 5198 5199 5201 5202 5204 5205 5207 5208 5209 5211 5212 5213 5214 5215 5215 5216 5216 5216 5216 5216 5216 5216 5216 5215 5215 5215 5215 5215 5215 5214 5213 5212 5210 5208 5206 5204 5202 5200 5198 5195 5193 5190 5187 5184 5181 5178 5175
5190 5189 5188 5188 5190 5191 5192 5192 5193 5193 5193 5194 5194 5194 5194 5193 5192 5191 5191 5190 5189 5188 5187 5187 5186 5187 5187 5187 5188 5189 5189 5190 5191 5192 5193 5194 5195 5196 5198 5200 5201 5202 5204 5205 5206 5207 5208 5209 5210 5211 5211 5212 5212 5213 5213 5213 5213 5213 5213 5213 5212 5212 5213 5213 5213 5212 5212 5211 5209 5208 5206 5204 5202 5200 5198 5196 5193 5191 5188 5185 5182 5179 5176 5173 5170
5192 5190 5189 5190 5191 5192 5193 5193 5194 5194 5194 5195 5195 5195 5195 5194 5194 5193 5192 5191 5190 5190 5189 5188 5188 5188 5188 5188 5188 5188 5189 5190 5191 5192 5193 5194 5195 5197 5198 5200 5201 5202 5203 5204 5205 5206 5207 5207 5208 5208 5209 5209 5210 5210 5210 5210 5210 5210 5210 5210 5210 5210 5210 5210 5210 5209 5208 5207 5205 5203 5201 5200 5198 5196 5194 5191 5189 5186 5183 5180 5178 5174 5171 5168 5165
5193 5192 5191 5191 5191 5192 5193 5194 5195 5195 5195 5196 5196 5196 5196 5195 5195 5194 5193 5193 5192 5192 5191 5191 5190 5189 5189 5189 5188 5188 5188 5189 5189 5190 5192 5193 5195 5196 5198 5199 5200 5201 5202 5203 5204 5205 5205 5205 5206 5206 5207 5207 5207 5208 5208 5208 5207 5208 5208 5208 5208 5208 5208 5208 5207 5206 5204 5203 5201 5199 5198 5196 5194 5192 5189 5187 5184 5182 5179 5176 5173 5169 5166 5163 5160
5194 5193 5192 5192 5192 5193 5194 5195 5196 5196 5196 5197 5197 5197 5197 5197 5196 5196 5195 5195 5194 5193 5193 5192 5191 5191 5190 5190 5189 5188 5188 5188 5188 5189 5190 5191 5193 5195 5196 5198 5199 5200 5201 5202 5203 5203 5203 5204 5204 5204 5205 5205 5205 5205 5205 5205 5206 5206 5206 5206 5206 5206 5206 5205 5204 5202 5201 5199 5198 5196 5194 5192 5190 5187 5185 5182 5180 5177 5174 5171 5167 5164 5161 5158 5155
5196 5195 5194 5194 5194 5195 5195 5196 5196 5197 5197 5198 5198 5198 5198 5198 5198 5197 5197 5196 5195 5195 5194 5193 5192 5192 5191 5190 5190 5189 5188 5188 5188 5188 5189 5190 5191 5193 5195 5196 5197 5198 5199 5200 5201 5201 5202 5202 5203 5203 5203 5203 5203 5203 5204 5204 5204 5204 5205 5205 5204 5204 5203 5202 5201 5199 5198 5196 5194 5192 5190 5188 5186 5183 5180 5177 5175 5172 5169 5165 5162 5159 5155 5152 5149
5198 5197 5196 5195 5195 5196 5196 5197 5197 5198 5198 5198 5199 5199 5199 5199 5199 5198 5198 5197 5196 5196 5195 5194 5193 5192 5191 5191 5190 5189 5188 5188 5188 5188 5188 5189 5190 5192 5193 5194 5196 5197 5198 5199 5199 5200 5201 5201 5201 5201 5201 5202 5202 5202 5203 5203 5203 5203 5203 5203 5202 5201 5200 5199 5198 5196 5195 5193 5191 5189 5186 5184 5181 5178 5175 5172 5169 5166 5163 5160 5156 5153 5150 5146 5143
5199 5198 5197 5197 5197 5197 5197 5198 5198 5199 5199 5199 5200 5200 5200 5200 5200 5199 5199 5198 5197 5197 5196 5195 5194 5193 5192 5191 5190 5189 5188 5188 5188 5188 5189 5189 5190 5191 5193 5194 5195 5196 5197 5198 5199 5199 5199 5200 5200 5200 5200 5201 5201 5202 5202 5202 5202 5202 5201 5200 5200 5199 5198 5196 5195 5193 5192 5190 5187 5185 5182 5179 5176 5173 5170 5167 5164 5160 5157 5154 5151 5147 5144 5140 5137
5200 5199 5198 5198 5197 5198 5198 5198 5198 5199 5199 5200 5200 5201 5201 5201 5200 5200 5199 5199 5198 5198 5197 5196 5195 5194 5193 5191 5190 5189 5189 5189 5189 5189 5189 5190 5190 5191 5193 5194 5195 5196 5196 5197 5198 5198 5198 5199 5199 5199 5200 5200 5201 5201 5201 5201 5200 5200 5199 5198 5197 5196 5195 5194 5192 5190 5188 5186 5184 5181 5178 5175 5171 5168 5165 5161 5158 5155 5151 5148 5145 5141 5137 5134 5130
5201 5200 5199 5199 5198 5198 5198 5199 5199 5199 5200 5200 5201 5201 5201 5201 5201 5201 5200 5200 5199 5199 5198 5196 5195 5194 5193 5191 5190 5189 5189 5189 5189 5189 5189 5190 5191 5192 5193 5194 5195 5195 5196 5196 5197 5198 5198 5199 5199 5199 5200 5200 5200 5200 5200 5199 5199 5198 5197 5196 5195 5194 5192 5191 5189 5187 5185 5182 5179 5177 5173 5170 5167 5163 5159 5156 5152 5149 5145 5141 5138 5134 5130 5126 5122
5202 5201 5200 5199 5199 5199 5199 5199 5199 5199 5200 5200 5201 5201 5201 5201 5201 5201 5201 5201 5200 5199 5198 5197 5196 5195 5193 5192 5191 5190 5190 5189 5189 5189 5190 5190 5191 5192 5193 5194 5195 5195 5196 5196 5197 5198 5198 5199 5199 5199 5199 5199 5199 5199 5199 5198 5197 5196 5195 5194 5193 5191 5190 5188 5186 5183 5181 5178 5175 5172 5169 5165 5162 5158 5154 5150 5146 5142 5138 5135 5131 5127 5122 5118 5114
5202 5201 5201 5200 5199 5199 5199 5199 5199 5199 5200 5200 5200 5200 5201 5201 5201 5201 5201 5201 5201 5200 5199 5198 5197 5195 5194 5193 5192 5191 5191 5190 5190 5190 5191 5191 5192 5193 5194 5194 5195 5196 5196 5197 5197 5198 5198 5198 5198 5199 5199 5198 5198 5198 5197 5197 5196 5195 5193 5192 5190 5189 5187 5185 5182 5180 5177 5174 5171 5167 5164 5160 5156 5152 5148 5144 5140 5136 5132 5128 5124 5119 5115 5111 5107
5202 5202 5201 5200 5200 5199 5199 5199 5199 5199 5199 5200 5200 5200 5201 5201 5201 5202 5202 5202 5201 5200 5199 5198 5197 5196 5195 5194 5193 5193 5192 5192 5192 5192 5192 5193 5193 5194 5195 5195 5196 5196 5197 5197 5197 5198 5198 5198 5198 5198 5198 5197 5197 5196 5196 5195 5194 5193 5191 5190 5188 5186 5184 5181 5179 5176 5173 5169 5166 5162 5158 5154 5151 5147 5143 5139 5134 5130 5126 5122 5118 5114 5110 5106 5102
5202 5201 5201 5200 5200 5200 5199 5199 5199 5199 5199 5199 5199 5199 5200 5200 5201 5202 5202 5202 5202 5201 5200 5199 5198 5197 5196 5195 5195 5195 5194 5194 5194 5194 5194 5194 5195 5195 5196 5196 5197 5197 5197 5198 5198 5198 5198 5198 5198 5197 5197 5196 5196 5195 5194 5193 5192 5191 5189 5187 5185 5183 5181 5178 5175 5172 5168 5164 5161 5157 5153 5149 5145 5141 5137 5133 5129 5125 5121 5117 5113 5109 5105 5101 5096
5201 5201 5200 5200 5200 5200 5199 5199 5199 5199 5199 5198 5198 5199 5199 5200 5201 5202 5202 5202 5202 5201 5201 5200 5199 5198 5198 5197 5197 5196 5196 5196 5196 5196 5196 5196 5196 5196 5197 5197 5197 5198 5198 5198 5198 5198 5198 5197 5197 5197 5196 5196 5195 5194 5193 5192 5190 5189 5187 5185 5183 5180 5177 5174 5171 5167 5163 5160 5156 5152 5148 5145 5141 5137 5133 5129 5125 5121 5117 5113 5108 5104 5100 5095 5091
5201 5201 5200 5200 5200 5199 5199 5199 5199 5198 5198 5198 5198 5198 5199 5200 5201 5202 5202 5202 5202 5202 5201 5201 5200 5200 5199 5199 5198 5198 5198 5198 5197 5197 5197 5197 5197 5197 5198 5198 5198 5198 5198 5198 5198 5198 5197 5197 5197 5196 5195 5195 5194 5193 5191 5190 5188 5187 5185 5182 5180 5177 5174 5170 5167 5163 5159 5155 5151 5148 5144 5140 5137 5133 5129 5125 5121 5117 5113 5109 5104 5100 5095 5090 5085